Location: ??????
(55.7522°N, 37.6156°E)
Time: 17:06:42
(UTC+00:00)

Cosmos 1340 Rocket - Pass Details

Date: 14 June 2025
Orbit: 492 x 523 km, 81.2° (Epoch: 12 July)

Event Time Altitude Azimuth Distance (km) Brightness Sun altitude
Rises 23:08:07 0° 340° (NNW) 2,639 7.1 -8.2°
Reaches altitude 10° 23:10:20 10° 334° (NNW) 1,752 6.0 -8.1°
Maximum altitude 23:13:57 40° 264° (W) 771 3.3 -7.9°
Drops below altitude 10° 23:17:34 10° 194° (SSW) 1,753 4.7 -7.7°
Enters shadow 23:17:39 10° 193° (SSW) 1,784 4.8 -7.7°
